DateTimeUTC,F1_A11,F1_S11,BsB_S11,BsG_S11,BsR_S11,BbsB_S11,BbsG_S11,BbsR_S11,BaB_A11,BaG_A11,BaR_A11,Tu_S11,T_S11,Uu_S11,U_S11,P_S11,T1_A11
2021-12-25T14:00:00Z,00000200,21000000,,,,,,,0000.42,0000.20,0000.14,19.8,26.9,,00.0,0659.3,31.2
2021-12-25T14:01:00Z,00000200,21000000,,,,,,,0000.20,0000.42,0000.66,19.8,26.9,,00.0,0659.3,31.2
2021-12-25T14:02:00Z,00000200,21000000,,,,,,,0000.68,0000.45,-000.01,19.8,26.9,,00.0,0659.3,31.2
2021-12-25T14:03:00Z,00000200,61000000,,,,,,,0000.45,0000.63,0000.21,19.9,26.9,,00.0,0659.3,31.2
2021-12-25T14:04:00Z,00000200,41000000,0000.78,0000.54,0000.43,0000.46,-000.01,0000.27,0000.55,0000.42,0000.45,20.3,26.9,,00.0,0660.2,31.2
2021-12-25T14:05:00Z,00000200,01000000,0000.90,0000.17,0000.16,0000.19,-000.35,0000.04,0000.58,0000.46,0000.56,20.4,26.9,,00.0,0660.2,31.2
2021-12-25T14:06:00Z,00000200,01000000,0000.46,0000.26,0000.24,0000.21,-000.16,-000.01,0000.66,0000.69,0000.13,20.3,26.8,,00.0,0660.2,31.2
2021-12-25T14:07:00Z,00000200,01000000,0000.46,0000.16,0000.31,-000.08,-000.36,0000.44,0000.44,0000.45,0000.78,20.3,26.8,,00.0,0660.2,31.2
2021-12-25T14:08:00Z,00000200,01000000,0000.55,0000.79,0000.94,0000.70,0000.01,0000.47,0004.50,0004.04,0002.99,20.2,26.8,,00.0,0660.2,31.2
2021-12-25T14:09:00Z,00000200,01000000,0012.13,0008.33,0005.18,0003.07,0001.46,0001.34,0139.15,0128.22,0102.18,20.2,26.7,,00.0,0660.2,31.2
2021-12-25T14:10:00Z,00000200,01000000,0002.24,0001.81,0001.36,0000.99,0000.42,0000.62,0040.79,0038.06,0031.01,20.1,26.7,,00.0,0660.2,31.2
2021-12-25T14:11:00Z,00000200,01000000,0000.96,0000.51,0000.16,0000.37,-000.04,0000.12,0001.82,0001.60,0001.28,20.1,26.7,,00.0,0660.1,31.2
2021-12-25T14:12:00Z,00000200,01000000,0001.32,0000.17,0000.37,0000.08,-000.01,0000.27,0000.80,0000.89,0000.74,20.1,26.6,,00.0,0660.1,31.2
2021-12-25T14:13:00Z,00000200,01000000,0000.55,0000.51,0000.82,-000.20,-000.41,0000.50,0000.64,0000.49,0000.60,20.1,26.6,,00.0,0660.1,31.2
2021-12-25T14:14:00Z,00000200,01000000,0000.80,0000.28,0000.36,0000.35,-000.43,-000.09,0000.78,0000.70,-000.04,20.1,26.6,,00.0,0660.2,31.2
2021-12-25T14:15:00Z,00000200,01000000,0000.68,0000.43,0000.58,0000.17,-000.12,0000.29,0000.94,0000.47,0000.67,20.2,26.7,,00.0,0660.2,31.2
2021-12-25T14:16:00Z,00000200,01000000,0000.49,0000.40,0000.24,0000.36,0000.14,0000.13,0000.13,0000.91,0000.48,20.2,26.7,,00.0,0660.1,31.2
2021-12-25T14:17:00Z,00000200,01000000,0000.46,0000.33,0000.43,0000.12,-000.06,0000.31,0000.91,0000.44,0000.36,20.3,26.7,,00.0,0660.1,31.2
2021-12-25T14:18:00Z,00000200,01000000,0000.40,0000.40,0000.39,-000.19,-000.26,0000.03,0000.43,0000.48,0000.33,20.3,26.7,,00.0,0660.2,31.2
2021-12-25T14:19:00Z,00000200,01000000,0000.66,0000.13,0000.65,0000.70,-000.29,0000.21,0000.35,0000.19,0000.41,20.3,26.8,,00.0,0660.2,31.2
2021-12-25T14:20:00Z,00000200,01000000,0000.52,0000.23,0000.35,0001.16,-000.27,0000.32,0000.75,0001.02,0000.53,20.3,26.7,,00.0,0660.2,31.2
2021-12-25T14:21:00Z,00000200,01000000,0000.46,0000.19,0000.15,0000.11,-000.26,0000.13,0000.31,-000.28,0000.46,20.2,26.7,,00.0,0660.1,31.2
2021-12-25T14:22:00Z,00000200,01000000,-000.19,0000.23,0000.46,-000.63,-000.27,0000.23,0000.30,0000.52,0000.13,20.2,26.7,,00.0,0660.1,31.2
2021-12-25T14:23:00Z,00000200,01000000,-000.20,0000.36,0000.36,-000.31,-000.03,-000.04,0000.32,0000.85,0000.26,20.1,26.7,,00.0,0660.1,31.2
2021-12-25T14:24:00Z,00000200,01000000,0000.80,0000.38,0000.47,0000.13,-000.22,0000.36,0000.52,-000.13,0000.37,20.1,26.6,,00.0,0660.1,31.2
2021-12-25T14:25:00Z,00000200,01000000,0000.31,0000.30,0000.10,0000.60,-000.04,0000.60,0000.40,0000.47,0000.13,20.0,26.6,,00.0,0660.0,31.2
2021-12-25T14:26:00Z,00000200,01000000,-000.10,0000.33,0000.39,0000.23,0000.27,0000.17,0000.28,0000.28,0000.26,20.0,26.6,,00.0,0660.0,31.2
2021-12-25T14:27:00Z,00000200,01000000,0000.77,0000.16,0000.02,-000.19,-000.18,-000.13,0000.66,0000.23,0000.47,20.0,26.5,,00.0,0660.1,31.2
2021-12-25T14:28:00Z,00000200,01000000,0000.99,0000.45,0000.19,0000.75,-000.04,0000.10,0000.12,0000.31,0000.07,20.0,26.5,,00.0,0660.1,31.2
2021-12-25T14:29:00Z,00000200,01000000,0000.66,0000.40,0000.51,0000.30,-000.21,0000.75,0000.49,0000.45,0000.22,20.0,26.5,,00.0,0660.2,31.2
2021-12-25T14:30:00Z,00000200,01000000,0000.98,0000.07,0000.44,0000.60,-000.37,0000.55,0000.44,0000.43,0000.33,20.1,26.6,,00.0,0660.2,31.2
2021-12-25T14:31:00Z,00000200,01000000,0000.17,0000.14,0000.00,-000.64,-000.51,-000.14,0000.43,0000.78,0000.52,20.2,26.5,,00.0,0660.2,31.2
2021-12-25T14:32:00Z,00000200,01000000,0001.13,0000.32,0000.28,0000.44,-000.31,-000.18,0000.59,-000.03,0000.40,20.2,26.6,,00.0,0660.2,31.2
2021-12-25T14:33:00Z,00000200,01000000,0000.46,-000.01,0000.19,0000.82,-000.29,-000.13,0000.18,0000.66,0000.20,20.3,26.6,,00.0,0660.2,31.3
2021-12-25T14:34:00Z,00000200,01000000,0000.28,0000.34,0000.30,0000.45,0000.13,0000.02,0000.64,0000.35,0000.20,20.4,26.7,,00.0,0660.3,31.3
2021-12-25T14:35:00Z,00000200,01000000,0000.71,0000.34,0000.35,-000.10,-000.10,0000.31,0000.29,0000.18,0000.31,20.4,26.7,,00.0,0660.3,31.3
2021-12-25T14:36:00Z,00000200,01000000,0000.34,0000.25,0000.53,0000.04,-000.17,0000.51,0000.15,0000.90,0000.16,20.5,26.7,,00.0,0660.3,31.3
2021-12-25T14:37:00Z,00000200,01000000,0000.31,0000.07,0000.40,0000.65,-000.29,-000.03,0000.50,-000.34,0000.63,20.5,26.8,,00.0,0660.3,31.3
2021-12-25T14:38:00Z,00000200,01000000,0000.71,0000.25,0000.28,0000.43,-000.19,0000.06,0000.47,0000.66,0000.26,20.5,26.8,,00.0,0660.3,31.3
2021-12-25T14:39:00Z,00000200,01000000,0000.45,0000.29,0000.44,-000.20,-000.05,0000.11,0000.03,0000.25,-000.10,20.5,26.8,,00.0,0660.3,31.2
2021-12-25T14:40:00Z,00000200,01000000,0000.58,-000.08,0000.26,0000.41,-000.24,0000.28,0000.57,0000.36,0000.12,20.4,26.8,,00.0,0660.3,31.2
2021-12-25T14:41:00Z,00000200,01000000,0001.03,0000.10,0000.19,-000.09,-000.04,-000.03,-000.21,-000.04,0000.62,20.3,26.7,,00.0,0660.3,31.2
2021-12-25T14:42:00Z,00000200,01000000,0000.91,-000.11,0000.54,0000.29,-000.14,0000.27,0000.74,0000.35,-000.05,20.3,26.7,,00.0,0660.3,31.2
2021-12-25T14:43:00Z,00000200,01000000,0001.16,-000.00,0000.33,0000.27,-000.20,0000.09,0000.20,0000.37,0000.29,20.3,26.7,,00.0,0660.3,31.2
2021-12-25T14:44:00Z,00000200,01000000,-000.19,0000.25,0000.25,-000.22,-000.06,-000.01,0000.34,0000.45,0000.30,20.4,26.7,,00.0,0660.3,31.2
2021-12-25T14:45:00Z,00000200,01000000,0000.37,0000.03,-000.04,0000.07,-000.24,0000.17,0000.59,0000.15,0000.24,20.4,26.7,,00.0,0660.3,31.2
2021-12-25T14:46:00Z,00000200,01000000,0000.00,-000.18,0000.48,0000.68,0000.10,-000.15,0000.20,0000.56,0000.71,20.5,26.8,,00.0,0660.4,31.2
2021-12-25T14:47:00Z,00000200,01000000,0000.52,0000.15,0000.31,0000.81,0000.06,0000.44,0000.31,0000.57,-000.08,20.5,26.8,,00.0,0660.4,31.3
2021-12-25T14:48:00Z,00000200,01000000,0000.24,0000.07,0000.07,-000.59,-000.02,0000.11,0000.08,0000.03,0000.47,20.6,26.8,,00.0,0660.4,31.3
2021-12-25T14:49:00Z,00000200,01000000,0000.21,-000.00,0000.09,-000.43,-000.28,-000.04,0000.38,0000.24,-000.04,20.7,26.9,,00.0,0660.4,31.3
2021-12-25T14:50:00Z,00000200,01000000,0000.77,-000.05,0000.26,0000.40,-000.41,0000.09,0000.52,0000.37,0000.04,20.7,26.9,,00.0,0660.4,31.3
2021-12-25T14:51:00Z,00000200,01000000,0000.60,0000.24,0000.24,0000.68,-000.33,0000.13,0000.16,0000.01,0000.47,20.8,26.9,,00.0,0660.5,31.3
2021-12-25T14:52:00Z,00000200,01000000,0000.85,0000.25,0000.36,0000.13,-000.29,0000.26,0000.25,0000.42,0000.26,20.7,27.0,,00.0,0660.5,31.3
2021-12-25T14:53:00Z,00000200,01000000,0001.00,0000.01,0000.68,0000.31,-000.20,0000.34,0000.46,0000.31,-000.18,20.7,27.0,,00.0,0660.4,31.3
2021-12-25T14:54:00Z,00000200,01000000,0000.55,0000.45,0000.27,0000.18,-000.07,0000.49,-000.06,-000.03,0000.33,20.6,27.0,,00.0,0660.4,31.3
2021-12-25T14:55:00Z,00000200,01000000,0000.29,0000.54,-000.21,0000.39,-000.13,-000.04,0000.27,0000.34,0000.24,20.6,26.9,,00.0,0660.4,31.2
2021-12-25T14:56:00Z,00000200,01000000,0000.55,0000.19,0000.27,-000.07,-000.37,0000.31,-000.05,-000.03,0000.25,20.5,26.9,,00.0,0660.4,31.2
2021-12-25T14:57:00Z,00000200,41000000,,,,,,,0001.41,0001.47,0000.58,20.5,27.0,,00.0,0660.3,31.2
2021-12-25T14:58:00Z,00000200,61000000,,,,,,,-000.39,-000.65,-000.19,20.1,27.0,,00.0,0659.5,31.2
2021-12-25T14:59:00Z,00000200,21000000,,,,,,,-000.20,-000.46,-000.13,20.1,27.1,,00.0,0659.5,31.2
